Regional Weather Roundup
Issued by NWS Raleigh/Durham, NC

Home | Current Version | Previous Version | Text Only | Print | Product List | Glossary On
Versions: 1 2 3 4 5 6 7 8 9 10 11 12 13 14 15 16 17 18 19 20 21 22 23 24 25 26 27
000
ASUS42 KRAH 262010
RWRRAH
NORTH CAROLINA WEATHER ROUNDUP
NATIONAL WEATHER SERVICE RALEIGH NC
400 PM EDT MON JUN 26 2017

NOTE: "FAIR" INDICATES FEW OR NO CLOUDS BELOW 12,000 FEET WITH NO
SIGNIFICANT WEATHER AND/OR OBSTRUCTIONS TO VISIBILITY.

NCZ001-053-055-056-065-067-262100-
WESTERN NORTH CAROLINA

CITY           SKY/WX    TMP DP  RH WIND       PRES   REMARKS
ASHEVILLE      SUNNY     79  45  29 N16G22    30.15F
JEFFERSON      PTSUNNY   69  47  45 SW6G18    30.19F
HICKORY        SUNNY     80  52  37 CALM      30.10F
RUTHERFORDTON  NOT AVBL
MOUNT AIRY     SUNNY     80  50  34 W3        30.12F
BOONE          NOT AVBL
$$

NCZ021-022-025-041-071-084-088-262100-
CENTRAL NORTH CAROLINA

CITY           SKY/WX    TMP DP  RH WIND       PRES   REMARKS
CHARLOTTE      MOSUNNY   83  51  33 S5        30.09F
GREENSBORO     MOSUNNY   81  52  36 SW8       30.08F
WINSTON-SALEM  SUNNY     80  47  31 VRB6      30.10F
RALEIGH-DURHAM MOSUNNY   84  53  34 W7        30.07F
FORT BRAGG     SUNNY     85  53  33 NE5       30.05F
FAYETTEVILLE   SUNNY     88  52  29 VRB6      30.05F
BURLINGTON     MOSUNNY   83  51  33 S8        30.08F
LAURINBURG     SUNNY     85  54  34 S7        30.06F
$$

NCZ011-015-027-028-043-044-047-080-103-262100-
NORTHEASTERN NORTH CAROLINA

CITY           SKY/WX    TMP DP  RH WIND       PRES   REMARKS
ROCKY MT-WILSO SUNNY     84  52  33 MISG      30.06F
GREENVILLE     SUNNY     86  54  32 W3        30.07F
WASHINGTON     SUNNY    N/A N/A N/A SE3       30.06F
ELIZABETH CITY SUNNY     82  59  45 SE9       30.06F
MANTEO         PTSUNNY   78  58  50 E8        30.08S
CAPE HATTERAS  NOT AVBL
$$

NCZ078-087-090-091-093-098-101-262100-
SOUTHEASTERN NORTH CAROLINA

CITY           SKY/WX    TMP DP  RH WIND       PRES   REMARKS
LUMBERTON      SUNNY     86  53  32 CALM      30.05F
GOLDSBORO      SUNNY     85  55  35 S3        30.04F
KINSTON        SUNNY     84  52  32 CALM      30.06F
KENANSVILLE    SUNNY     82  54  36 N3        30.07F
NEW BERN       SUNNY     83  61  47 VRB3      30.07F
CHERRY POINT   PTSUNNY   84  60  44 NE13      30.06F
BEAUFORT       MOSUNNY   83  64  52 E5        30.05F
JACKSONVILLE   SUNNY     84  62  47 CALM      30.05F
WILMINGTON     CLOUDY    84  60  44 N6        30.06F
$$





USA.gov is the U.S. government's official web portal to all federal, state and local government web resources and services.